Probability
0 0 0 0 0 0 0 0 0 0 0 0 0 0 0 0 0 0 0 0 0 0 0 0 0 0 0 0 0 0 0 0 0 0 0 0 0 0 0 0 0 0 0
0 0 0 0 0 0 0 0 0 0 0 0 0 0 0 0 0 0 0 0 0 0 0 0 0 0 0 0 0 0 0 0 0 0 0 0 0 0 0 0 0 0 0
0 0 0 0 0 0 0 0 0 0 0 0 0 0 0 0 0 0 0 0 0 0 0 0 0 0 0 0 0 0 0 0 0 0 0 0 0 0 0 0 0 0 0
0 0 0 0 0 0 0 0 0 0 0 0 0 0 0 0 0 0 0 0 0 0 0 0 0 0 0 0 0 0 0 0 0 0 0 0 0 0 0 0 0 0 0
0 0 0 0 0 0 0 0 0 0 0 0 0 0 0 0 0 0 0 0 0 0 0 0 0 0 0 0 0 0 0 0 0 0 0 0 0 0 0 0 0 0 0
0 0 0 0 0 0 0 0 0 0 0 0 0 0 0 0 0 0 0 0 0 0 0 0 0 0 0 0 0 0 0 0 0 0 0 0 0 0 0 0 0 0 0
0 0 0 0 0 0 0 0 0 0 0 0 0 0 0 0 0 0 0 0 0 0 0 0 0 0 0 0 0 0 0 0 0 0 0 0 0 0 0 0 0 0 0
0 0 0 0 0 0 0 0 0 0 0 0 0 0 0 0 0 0 0 0 0 0 0 0 0 0 0 0 0 0 0 0 0 0 0 0 0 0 0 0 0 0 0
0 0 0 0 0 0 0 0 0 0 0 0 0 0 0 0 0 0 0 0 0 0 0 0 0 0 0 0 0 0 0 0 0 0 0 0 0 0 0 0 0 0 0
0 0 0 0 0 0 0 0 0 0 0 0 0 0 0 0 0 0 0 0 0 0 0 0 0 0 0 0 0 0 0 0 0 0 0 0 0 0 0 0 0 0 0
0 0 0 0 0 0 0 0 0 0 0 0 0 0 0 0 0 0 0 0 0 0 0 0 0 0 0 0 0 0 0 0 0 0 0 0 0 0 0 0 0 0 0
0 0 0 0 0 0 0 0 0 0 0 0 0 0 0 0 0 0 0 0 0 0 0 0 0 0 0 0 0 0 0 0 0 0 0 0 0 0 0 0 0 0 0
0 0 0 0 0 0 0 0 0 0 0 0 0 0 0 0 0 0 0 0 0 0 0 0 0 0 0 0 0 0 0 0 0 0 0 0 0 0 0 0 0 0 0
0 0 0 0 0 0 0 0 0 0 0 0 0 0 0 0 0 0 0 0 0 0 0 0 0 0 0 0 0 0 0 0 0 0 0 0 0 0 0 0 0 0 0
0 0 0 0 0 0 0 0 0 0 0 0 0 0 0 0 0 0 0 0 0 0 0 0 0 0 0 0 0 0 0 0 0 0 0 0 0 0 0 0 0 0 0
0 0 0 0 0 0 0 0 0 0 0 0 0 0 0 0 0 0 0 0 0 0 0 0 0 0 0 0 0 0 0 0 0 0 0 0 0 0 0 0 0 0 0
0 0 0 0 0 0 0 0 0 0 0 0 0 0 0 0 0 0 0 0 0 0 0 0 0 0 0 0 0 0 0 0 0 0 0 0 0 0 0 0 0 0 0
0 0 0 0 0 0 0 0 0 0 0 0 0 0 0 0 0 0 0 0 0 0 0 0 0 0 0 0 0 0 0 0 0 0 0 0 0 0 0 0 0 0 0
0 0 0 0 0 0 0 0 0 0 0 0 0 0 0 0 0 0 0 0 0 0 0 0 0 0 0 0 0 0 0 0 0 0 0 0 0 0 0 0 0 0 0
0 0 0 0 0 0 0 0 0 0 0 0 0 0 0 0 0 0 0 0 0 0 0 0 0 0 0 0 0 0 0 0 0 0 0 0 0 0 0 0 0 0 0
0 0 0 0 0 0 0 0 0 0 0 0 0 0 0 0 0 0 0 0 0 0 0 0 0 0 0 0 0 0 0 0 0 0 0 0 0 0 0 0 0 0 0
0 0 0 0 0 0 0 0 0 0 0 0 0 0 0 0 0 0 0 0 0 0 0 0 0 0 0 0 0 0 0 0 0 0 0 0 0 0 0 0 0 0 0
0 0 0 0 0 0 0 0 0 0 0 0 0 0 0 0 0 0 0 0 0 0 0 0 0 0 0 0 0 0 0 0 0 0 0 0 0 0 0 0 0 0 0
0 0 0 0 0 0 0 0 0 0 0 0 0 0 0 0 0 0 0 0 0 0 0 0 0 0 0 0 0 0 0 0 0 0 0 0 0 0 0 0 0 0 0
0 0 0 0 0 0 0 0 0 0 0 0 0 0 0 0 0 0 0 0 0 0 0 0 0 0 0 0 0 0 0 0 0 0 0 0 0 0 0 0 0 0 0
0 0 0 0 0 0 0 0 0 0 0 0 0 0 0 0 0 0 0 0 0 0 0 0 0 0 0 0 0 0 0 0 0 0 0 0 0 0 0 0 0 0 0
Height
5576 5577 5579 5581 5583 5585 5588 5591 5594 5596 5599 5603 5606 5609 5611 5614 5617 5620 5623 5626 5628 5631 5634 5637 5640 5642 5645 5648 5651 5654 5658 5661 5665 5671 5673 5676 5679 5683 5686 5689 5692 5695 5697
5561 5562 5565 5567 5569 5571 5574 5576 5579 5582 5585 5588 5591 5594 5597 5600 5603 5606 5609 5612 5615 5618 5620 5623 5626 5629 5632 5634 5637 5640 5644 5647 5651 5655 5659 5662 5665 5668 5672 5675 5678 5681 5684
5546 5548 5550 5552 5554 5557 5559 5562 5564 5567 5570 5574 5577 5580 5583 5586 5589 5592 5595 5598 5601 5604 5607 5610 5612 5615 5618 5621 5623 5626 5630 5633 5636 5640 5645 5648 5651 5654 5658 5661 5664 5668 5671
5532 5533 5536 5538 5540 5542 5545 5547 5550 5553 5556 5559 5563 5566 5569 5572 5575 5578 5581 5584 5587 5590 5593 5595 5598 5600 5603 5606 5609 5612 5615 5617 5621 5624 5629 5633 5637 5640 5643 5646 5650 5653 5657
5518 5520 5522 5524 5526 5528 5530 5532 5535 5538 5542 5545 5549 5552 5555 5558 5561 5564 5567 5570 5573 5576 5578 5581 5583 5586 5588 5591 5594 5597 5600 5602 5606 5609 5614 5618 5622 5625 5629 5632 5635 5638 5642
5505 5506 5508 5510 5512 5514 5516 5518 5521 5524 5527 5531 5534 5538 5541 5544 5546 5549 5552 5555 5558 5561 5564 5567 5569 5572 5574 5576 5579 5582 5585 5588 5591 5595 5598 5603 5607 5610 5613 5616 5620 5623 5628
5492 5494 5495 5496 5498 5500 5502 5504 5507 5510 5514 5517 5520 5524 5527 5530 5532 5535 5537 5540 5544 5547 5550 5553 5555 5558 5559 5562 5565 5567 5570 5573 5577 5580 5583 5588 5592 5596 5598 5602 5605 5608 5612
5481 5482 5482 5484 5485 5487 5488 5491 5494 5497 5500 5503 5506 5510 5513 5516 5519 5521 5524 5527 5530 5533 5536 5538 5541 5544 5545 5548 5550 5553 5556 5559 5563 5565 5569 5574 5576 5579 5582 5586 5588 5592 5596
5471 5471 5472 5472 5473 5475 5476 5479 5481 5484 5487 5490 5493 5496 5500 5503 5505 5508 5510 5513 5517 5520 5522 5524 5526 5529 5532 5533 5535 5538 5542 5545 5547 5550 5554 5557 5561 5564 5566 5570 5573 5576 5580
5462 5462 5461 5462 5462 5463 5465 5467 5470 5472 5475 5478 5481 5484 5487 5490 5493 5495 5497 5500 5503 5507 5509 5510 5513 5515 5517 5519 5520 5523 5527 5531 5533 5536 5539 5542 5545 5548 5551 5554 5557 5560 5564
5452 5452 5452 5453 5453 5454 5455 5457 5459 5461 5463 5466 5470 5472 5475 5478 5480 5482 5484 5486 5489 5492 5495 5497 5499 5501 5503 5505 5506 5509 5512 5515 5518 5520 5524 5527 5530 5533 5536 5539 5542 5545 5548
5444 5444 5444 5444 5445 5445 5446 5448 5449 5451 5453 5455 5458 5461 5463 5465 5467 5470 5472 5473 5475 5478 5481 5484 5486 5487 5489 5491 5493 5495 5498 5500 5503 5506 5509 5512 5516 5519 5522 5525 5527 5530 5533
5436 5436 5436 5436 5437 5437 5438 5439 5440 5441 5443 5445 5447 5449 5452 5454 5456 5457 5459 5460 5462 5464 5466 5469 5472 5473 5475 5478 5480 5482 5484 5486 5489 5492 5495 5498 5502 5505 5507 5509 5512 5515 5518
5428 5428 5428 5428 5429 5429 5429 5429 5430 5432 5433 5435 5436 5439 5441 5443 5444 5445 5446 5447 5449 5450 5452 5455 5457 5459 5461 5464 5466 5469 5471 5473 5476 5479 5482 5485 5487 5490 5492 5495 5497 5500 5503
5420 5420 5420 5420 5420 5420 5421 5421 5421 5422 5422 5424 5426 5428 5430 5432 5433 5433 5434 5436 5437 5438 5439 5442 5444 5446 5448 5451 5453 5455 5457 5460 5462 5465 5468 5471 5473 5476 5478 5481 5483 5486 5489
5412 5412 5412 5412 5412 5412 5412 5412 5412 5412 5413 5414 5415 5417 5418 5420 5421 5422 5423 5424 5425 5426 5427 5429 5432 5433 5435 5437 5440 5442 5444 5447 5449 5452 5454 5457 5460 5462 5465 5467 5470 5472 5475
5403 5403 5403 5403 5404 5404 5403 5403 5404 5404 5404 5404 5405 5406 5408 5409 5410 5411 5412 5413 5413 5414 5415 5417 5419 5421 5423 5424 5426 5428 5431 5433 5436 5439 5441 5444 5447 5449 5452 5454 5456 5459 5461
5395 5395 5395 5395 5395 5394 5394 5394 5395 5396 5396 5396 5396 5397 5398 5399 5399 5400 5401 5402 5403 5403 5404 5406 5408 5409 5410 5412 5414 5415 5418 5420 5423 5426 5429 5431 5434 5436 5439 5441 5443 5446 5448
5387 5386 5386 5386 5385 5385 5385 5386 5386 5386 5387 5387 5387 5388 5388 5389 5389 5390 5390 5391 5392 5393 5394 5395 5397 5398 5399 5400 5402 5404 5406 5408 5411 5414 5416 5419 5421 5424 5427 5429 5431 5433 5435
5378 5378 5377 5377 5377 5377 5377 5377 5377 5378 5378 5378 5379 5379 5379 5380 5381 5381 5381 5382 5382 5383 5384 5385 5386 5388 5389 5390 5391 5393 5395 5397 5400 5402 5405 5407 5410 5412 5415 5417 5419 5421 5423
5370 5370 5369 5369 5369 5369 5369 5369 5369 5369 5369 5370 5370 5370 5371 5371 5372 5372 5372 5373 5373 5374 5375 5376 5377 5378 5380 5381 5382 5384 5386 5388 5390 5393 5395 5397 5399 5401 5403 5405 5407 5409 5411
5362 5362 5362 5362 5361 5361 5361 5361 5361 5361 5361 5362 5362 5363 5363 5363 5363 5364 5364 5364 5365 5366 5366 5367 5368 5370 5371 5372 5373 5375 5376 5378 5381 5383 5385 5387 5388 5390 5392 5394 5396 5398 5399
5355 5355 5354 5354 5354 5354 5353 5353 5353 5353 5354 5354 5355 5355 5355 5355 5356 5356 5356 5356 5357 5358 5359 5360 5360 5361 5362 5363 5365 5366 5368 5370 5372 5374 5376 5377 5379 5380 5382 5384 5385 5387 5389
5348 5348 5348 5347 5347 5347 5346 5346 5346 5346 5346 5347 5347 5347 5348 5348 5348 5348 5348 5349 5349 5350 5351 5352 5352 5353 5354 5355 5356 5358 5359 5361 5363 5365 5367 5368 5370 5371 5373 5374 5375 5377 5378
5341 5341 5341 5341 5341 5340 5340 5340 5339 5340 5340 5340 5340 5340 5340 5341 5341 5341 5341 5341 5342 5342 5343 5344 5345 5345 5346 5347 5348 5349 5351 5352 5354 5356 5357 5359 5360 5361 5363 5365 5366 5367 5368
5335 5335 5335 5334 5334 5334 5333 5333 5333 5332 5332 5333 5333 5333 5333 5333 5333 5333 5334 5334 5334 5335 5335 5336 5337 5338 5338 5339 5340 5341 5342 5344 5345 5346 5348 5349 5351 5352 5353 5354 5356 5357 5358
Wind_Speed
49 49 50 50 50 50 51 52 52 52 51 50 50 51 51 51 50 50 50 50 50 50 50 50 49 49 48 47 47 47 47 48 49 48 48 49 49 49 48 48 47 45 44
48 49 49 49 49 50 50 51 51 52 52 51 51 51 52 51 51 51 51 51 51 50 50 50 50 50 50 50 50 49 49 49 49 49 49 50 50 50 49 49 49 47 46
47 47 48 48 49 49 49 50 51 51 51 51 51 51 52 52 51 51 51 51 51 51 51 51 51 51 51 52 52 51 50 50 50 50 50 50 50 51 51 51 51 50 48
45 46 47 47 47 48 48 49 51 51 51 51 50 51 51 52 52 52 51 52 52 52 51 52 52 52 51 52 51 50 50 50 50 51 51 50 51 51 51 52 51 51 51
45 45 46 46 46 47 47 48 50 51 51 51 50 50 51 52 52 52 51 52 52 52 51 51 51 51 52 52 52 51 51 50 51 52 52 52 51 51 52 52 52 51 52
44 44 45 45 46 47 47 48 48 49 50 51 50 50 50 51 51 51 51 51 51 51 51 51 51 51 52 52 52 52 51 50 50 51 52 52 51 51 51 52 52 53 52
41 42 43 44 44 46 47 48 48 48 49 50 50 49 50 50 50 51 51 50 50 50 50 50 50 50 51 52 52 52 51 51 51 51 51 51 51 51 51 52 53 53 53
39 39 40 42 43 43 44 45 46 47 48 48 48 47 48 48 49 49 50 49 49 49 49 50 50 50 50 51 51 52 51 51 51 51 51 51 52 52 52 52 52 54 54
37 36 37 38 40 41 42 43 43 44 46 47 47 46 46 47 47 48 49 48 48 49 48 49 49 50 51 51 51 51 51 51 52 52 51 51 52 53 54 53 53 54 54
34 34 34 35 36 38 39 40 41 42 43 44 45 46 46 46 46 46 47 48 48 48 48 48 48 49 50 50 50 51 51 51 51 51 52 51 52 53 53 53 52 53 53
32 33 33 33 33 34 36 37 38 39 41 42 43 44 44 44 44 46 46 47 47 46 47 47 48 48 48 48 49 49 49 49 50 51 51 52 52 52 52 53 52 53 53
31 31 31 31 31 32 33 34 35 36 38 39 41 41 42 42 43 44 45 45 46 46 46 47 47 48 48 48 47 48 48 49 49 50 50 51 51 50 51 52 52 52 52
30 30 31 31 32 32 32 33 33 34 36 37 38 39 40 41 42 43 43 44 45 46 46 46 46 47 47 47 46 46 47 48 49 49 49 49 49 50 50 51 51 51 51
30 30 29 30 32 32 32 32 33 34 35 35 36 37 38 39 40 40 41 42 43 44 44 45 46 46 46 46 46 46 47 48 48 48 47 48 49 49 50 50 50 50 50
30 31 32 32 32 32 33 33 32 32 33 34 34 35 37 38 39 39 39 40 41 42 43 43 44 44 45 44 44 45 46 47 48 47 47 48 48 49 49 49 49 50 50
31 32 33 33 32 32 33 33 34 33 33 33 34 35 36 37 37 37 38 39 39 40 41 42 42 43 43 43 44 45 45 46 46 46 47 46 46 47 48 48 48 49 48
30 31 31 32 32 33 33 33 33 34 34 34 35 35 35 35 36 36 37 37 37 38 39 40 41 41 42 42 42 43 44 44 45 45 45 45 45 45 45 46 47 47 48
27 29 30 30 31 32 31 32 32 33 33 33 33 34 34 34 35 35 36 36 37 37 38 38 38 39 39 39 40 40 41 43 43 44 44 44 44 43 43 43 44 45 46
26 27 28 29 29 30 30 30 30 31 31 32 32 32 32 33 33 34 34 34 34 35 35 36 36 36 37 38 38 38 39 40 41 41 41 42 42 42 42 42 43 44 44
26 26 26 26 27 27 28 29 29 29 30 30 31 31 31 31 32 32 32 32 32 32 32 33 33 33 34 34 35 35 35 36 37 38 38 39 39 40 41 41 41 42 43
25 25 25 25 25 26 26 27 28 28 28 28 28 28 28 29 29 29 29 29 29 30 30 30 31 31 32 32 33 33 33 34 35 36 35 36 37 38 39 39 40 41 41
24 24 24 24 24 25 25 25 26 26 26 26 26 26 26 27 27 28 27 27 27 27 28 28 29 30 31 32 31 31 32 32 33 33 33 33 34 36 37 38 38 38 38
23 23 23 23 23 23 23 23 24 24 25 25 24 24 24 25 25 26 26 26 26 26 27 27 28 29 30 30 30 30 31 32 32 31 31 31 32 34 35 35 35 36 36
22 22 21 21 21 21 21 22 22 23 23 24 24 24 24 24 25 25 25 25 26 26 27 27 28 28 28 29 30 31 31 31 32 31 30 30 31 32 32 33 33 34 35
21 21 21 21 21 21 21 21 22 23 23 23 23 24 24 24 24 24 25 25 26 26 26 26 26 27 27 28 29 30 30 31 31 31 31 31 31 32 32 33 33 33 34
20 21 21 21 21 21 21 21 22 23 23 23 23 24 24 24 24 24 24 24 25 25 26 26 26 26 26 27 27 28 30 31 31 31 31 31 32 32 33 33 34 34 35
Wind_Direction
260 260 259 259 259 257 256 256 256 255 254 254 254 254 254 255 255 255 255 254 254 254 253 253 254 254 255 255 254 255 256 255 254 253 252 252 252 252 252 252 251 253 254
262 261 260 260 259 258 256 256 256 255 255 254 254 253 253 254 254 254 254 254 253 254 254 254 254 255 255 254 255 256 257 256 255 253 252 253 252 251 252 252 252 252 253
262 261 260 260 259 258 257 257 256 255 254 254 253 253 253 252 253 253 254 254 254 254 254 255 255 256 256 255 256 256 256 256 255 254 253 252 252 251 252 252 252 252 253
263 261 260 260 260 258 256 256 255 255 254 253 253 252 252 252 253 254 254 254 254 255 255 256 256 256 256 255 255 256 256 256 255 254 253 252 252 252 252 252 253 253 253
263 261 261 260 259 259 257 255 254 253 253 252 252 252 252 252 253 253 254 255 254 254 255 256 256 256 255 255 255 255 256 255 255 254 254 253 253 252 253 253 252 252 253
264 262 262 261 260 258 257 255 254 253 252 252 253 253 253 253 253 254 254 254 254 254 254 255 256 256 255 254 255 255 255 255 255 255 255 254 254 254 253 253 252 253 254
264 262 262 261 260 259 258 256 255 254 253 253 253 254 253 253 253 254 254 254 254 254 254 255 256 256 256 255 254 254 254 256 256 256 255 254 254 254 254 253 254 254 254
263 263 263 261 260 259 257 256 256 254 253 252 253 253 252 253 253 254 253 254 254 254 255 256 256 255 255 255 255 255 255 255 255 255 255 254 253 253 253 254 254 255 255
262 263 262 261 260 258 257 257 257 255 254 253 253 252 253 253 253 252 252 254 255 256 256 256 255 255 254 254 256 256 255 255 255 255 254 254 253 254 254 255 255 255 256
263 264 263 262 261 259 258 259 258 257 255 253 253 254 254 254 253 253 254 254 256 256 256 257 257 256 255 256 257 257 256 256 255 254 255 254 255 255 255 255 255 256 256
265 265 262 262 263 262 260 260 259 258 256 254 254 255 256 255 255 255 254 255 257 257 257 257 257 256 256 257 258 257 257 256 254 254 255 254 255 255 255 255 256 257 256
264 264 263 263 263 263 261 261 260 259 257 255 255 255 256 256 256 256 257 257 258 258 258 257 256 255 256 257 258 258 257 256 255 255 255 255 255 255 256 256 257 257 256
264 264 264 264 263 263 263 263 261 259 258 257 256 256 256 257 257 259 259 258 259 259 259 257 256 256 255 256 258 258 257 256 256 256 255 255 256 256 257 257 257 257 256
265 265 264 263 263 262 264 265 262 260 260 259 257 256 256 257 258 259 258 257 258 259 258 257 256 256 256 257 257 257 257 256 256 256 255 256 255 256 258 258 258 257 257
268 268 266 266 266 266 264 264 264 263 263 262 260 259 258 258 258 259 258 257 258 258 258 257 256 256 255 255 256 256 256 256 256 256 256 256 257 257 258 259 258 257 257
269 268 267 267 267 267 266 266 265 264 264 263 263 262 261 260 259 259 259 258 258 258 258 258 258 257 257 258 258 257 256 256 256 256 256 257 257 257 258 258 257 258 258
269 268 268 268 268 269 268 266 265 265 265 265 265 263 262 261 261 261 261 260 259 259 260 260 259 260 259 259 259 258 256 256 257 256 255 256 256 257 257 257 256 257 258
271 270 270 270 270 270 269 267 265 265 265 265 265 264 263 262 262 262 263 262 261 261 260 260 260 260 259 260 260 258 256 255 254 254 255 255 255 256 257 257 256 256 258
272 270 270 270 270 270 268 266 265 266 266 265 264 263 262 262 263 263 263 263 262 262 260 259 260 261 261 261 260 259 257 254 253 253 253 254 255 255 256 257 257 258 259
274 272 270 270 271 270 268 266 266 266 266 266 265 263 262 262 261 262 263 264 263 262 261 259 259 260 261 260 258 257 256 254 253 253 253 254 255 255 255 257 259 258 259
275 273 271 271 271 271 270 268 266 266 266 265 265 263 262 262 261 262 263 263 262 260 259 258 257 258 259 260 259 257 255 255 254 254 254 255 255 256 256 257 258 259 260
273 272 272 272 273 272 271 269 268 267 265 264 262 262 263 263 262 261 262 262 260 259 259 259 258 257 259 258 257 255 253 253 253 254 256 257 257 256 257 258 259 260 261
275 273 272 272 273 274 273 272 271 269 267 265 263 263 263 264 263 262 262 261 258 257 258 259 260 260 259 257 255 253 253 253 253 254 255 257 257 257 256 258 259 259 260
275 274 273 272 272 273 273 272 271 269 267 266 265 264 265 266 266 265 264 261 258 257 257 258 258 257 257 257 255 253 252 252 253 253 255 258 258 257 257 259 260 261 261
274 273 272 273 273 273 273 272 270 268 267 267 265 265 265 266 266 266 263 261 260 259 259 258 258 258 257 256 256 254 252 253 254 254 257 258 258 257 258 260 260 261 262
273 272 271 270 271 272 273 273 272 269 268 268 267 266 266 266 266 265 262 262 261 260 260 259 258 258 257 257 256 255 255 255 255 256 257 258 258 258 259 259 260 261 262